Erzurum, Turkey

7:04 PM +03 on April 24, 2017 (GMT +0300)
Erzurum

Weather History for LTCE - March, 2013

Change the Weather History Date:

Saturday, March 16, 2013

  Actual Average Record
Temperature  
Mean Temperature 44 °F -  
Max Temperature 55 °F 44 °F 55 °F (2013)
Min Temperature 34 °F 28 °F 1 °F (2005)
Degree Days  
Heating Degree Days 20    
Moisture  
Dew Point 35 °F    
Average Humidity 64    
Maximum Humidity 87    
Minimum Humidity 42    
Precipitation  
Precipitation 0.02 in 0.05 in - ()
Sea Level Pressure  
Sea Level Pressure 29.95 in    
Wind  
Wind Speed 8 mph ()    
Max Wind Speed 22 mph    
Max Gust Speed 32 mph    
Visibility 6.5 miles    
Events Rain    
Averages and records for this station are not official NWS values.
T = Trace of Precipitation, MM = Missing Value Source: Averaged Metar Reports

Daily Weather History Graph

Daily Weather History Graph

Search for Another Location

Airport or City:

Trip Planner

Search our weather history database for the weather conditions in past years. The results will help you decide how hot, cold, wet, or windy it might be!

Date:

Astronomy

Mar. 16, 2013 Rise Set
Actual Time 5:25 AM EET 5:23 PM EET
Civil Twilight 4:58 AM EET 5:50 PM EET
Nautical Twilight 4:26 AM EET 6:21 PM EET
Astronomical Twilight 3:55 AM EET 6:53 PM EET
Moon 7:40 AM EET (3/16) 10:12 PM EET (3/16)
Length of Visible Light 12h 51m
Length of Day
11h 57m
Waxing Crescent, 21% of the Moon is Illuminated
Mar 16
Waxing Crescent
Mar 19
First Quarter
Mar 27
Full
Apr 3
Last Quarter
Apr 10
New

Hourly Weather History & Observations

Time (EET) Temp. Windchill Dew Point Humidity Pressure Visibility Wind Dir Wind Speed Gust Speed Precip Events Conditions
12:20 AM 37.4 °F 32.8 °F 32.0 °F 81% 30.12 in 6.2 mi SW 5.8 mph - N/A   Mostly Cloudy
12:50 AM 37.4 °F 32.8 °F 32.0 °F 81% 30.09 in 6.2 mi Variable 5.8 mph - N/A   Mostly Cloudy
1:20 AM 39.2 °F 35.9 °F 32.0 °F 75% 30.06 in 6.2 mi East 4.6 mph - N/A   Mostly Cloudy
1:50 AM 42.8 °F 37.5 °F 30.2 °F 61% 30.06 in 6.2 mi East 9.2 mph - N/A   Mostly Cloudy
2:00 AM 43 °F - 30 °F 49%  in 12 mi East 9.2 mph - -   Partly Cloudy
2:20 AM 41.0 °F 34.7 °F 32.0 °F 70% 30.09 in 6.2 mi SE 10.4 mph - N/A   Mostly Cloudy
2:50 AM 42.8 °F 36.6 °F 30.2 °F 61% 30.06 in 6.2 mi NNW 11.5 mph - N/A   Mostly Cloudy
3:20 AM 48.2 °F - 30.2 °F 50% 30.06 in 6.2 mi Variable 6.9 mph - N/A   Mostly Cloudy
3:50 AM 46.4 °F 41.9 °F 32.0 °F 57% 30.06 in 6.2 mi WSW 9.2 mph - N/A   Mostly Cloudy
4:20 AM 44.6 °F 39.2 °F 35.6 °F 71% 30.06 in 6.2 mi WSW 10.4 mph - N/A   Mostly Cloudy
4:50 AM 46.4 °F - 35.6 °F 66% 30.06 in 6.2 mi Variable 2.3 mph - N/A   Mostly Cloudy
5:20 AM 46.4 °F 45.2 °F 35.6 °F 66% 30.04 in 6.2 mi Variable 3.5 mph - N/A   Mostly Cloudy
5:50 AM 48.2 °F - 33.8 °F 58% 30.04 in 6.2 mi Variable 2.3 mph - N/A   Mostly Cloudy
6:20 AM 41.0 °F 36.4 °F 33.8 °F 76% 30.04 in 6.2 mi North 6.9 mph - N/A   Mostly Cloudy
6:50 AM 42.8 °F 41.1 °F 33.8 °F 70% 30.01 in 6.2 mi NW 3.5 mph - N/A   Mostly Cloudy
7:20 AM 46.4 °F 41.5 °F 33.8 °F 62% 30.01 in 6.2 mi Variable 10.4 mph - N/A   Mostly Cloudy
7:50 AM 46.4 °F 45.2 °F 33.8 °F 62% 30.01 in 6.2 mi Variable 3.5 mph - N/A   Mostly Cloudy
8:00 AM 46 °F - 34 °F 51%  in 6 mi South 4.6 mph - -   Partly Cloudy
8:20 AM 48.2 °F - 33.8 °F 58% 29.98 in 6.2 mi NE 4.6 mph - N/A   Mostly Cloudy
8:50 AM 51.8 °F - 32.0 °F 47% 29.98 in 6.2 mi SE 13.8 mph 26.5 mph N/A   Mostly Cloudy
9:20 AM 51.8 °F - 33.8 °F 50% 29.98 in 6.2 mi South 10.4 mph - N/A   Mostly Cloudy
9:50 AM 51.8 °F - 33.8 °F 50% 29.98 in 6.2 mi NE 8.1 mph - N/A   Mostly Cloudy
10:20 AM 50.0 °F - 33.8 °F 54% 29.98 in 6.2 mi NE 10.4 mph - N/A   Mostly Cloudy
10:50 AM 50.0 °F - 33.8 °F 54% 29.95 in 6.2 mi NE 11.5 mph - N/A   Mostly Cloudy
11:20 AM 48.2 °F - 35.6 °F 62% 29.95 in 6.2 mi NE 15.0 mph - N/A   Mostly Cloudy
11:50 AM 53.6 °F - 35.6 °F 51% 29.95 in 6.2 mi Variable 4.6 mph - N/A   Mostly Cloudy
12:20 PM 51.8 °F - 35.6 °F 54% 29.92 in 6.2 mi ENE 5.8 mph - N/A   Mostly Cloudy
12:50 PM 53.6 °F - 33.8 °F 47% 29.92 in 6.2 mi East 11.5 mph - N/A   Mostly Cloudy
1:20 PM 55.4 °F - 33.8 °F 44% 29.89 in 6.2 mi Variable 3.5 mph - N/A   Mostly Cloudy
1:50 PM 50.0 °F - 33.8 °F 54% 29.89 in 6.2 mi East 17.3 mph - N/A   Mostly Cloudy
2:00 PM 50 °F - 34 °F 42%  in 12 mi East 18.4 mph - -   Partly Cloudy
2:20 PM 48.2 °F - 35.6 °F 62% 29.89 in 6.2 mi East 17.3 mph - N/A   Mostly Cloudy
2:50 PM 48.2 °F - 35.6 °F 62% 29.89 in 6.2 mi East 17.3 mph - N/A   Mostly Cloudy
3:20 PM 48.2 °F - 35.6 °F 62% 29.89 in 6.2 mi East 15.0 mph 26.5 mph N/A   Mostly Cloudy
3:37 PM 46.4 °F 41.1 °F 35.6 °F 66% 29.92 in 6.2 mi ESE 11.5 mph - N/A Rain Light Rain
3:50 PM 46.4 °F 41.9 °F 35.6 °F 66% 29.92 in 6.2 mi SE 9.2 mph - N/A Rain Light Rain
4:13 PM 44.6 °F 42.2 °F 39.2 °F 81% 29.92 in 6.2 mi South 4.6 mph - N/A   Mostly Cloudy
4:20 PM 44.6 °F 43.1 °F 41.0 °F 87% 29.92 in 6.2 mi Variable 3.5 mph - N/A   Mostly Cloudy
4:50 PM 44.6 °F 40.7 °F 37.4 °F 76% 29.89 in 6.2 mi NE 6.9 mph - N/A   Mostly Cloudy
5:20 PM 42.8 °F 36.6 °F 35.6 °F 76% 29.89 in 6.2 mi NE 11.5 mph - N/A   Mostly Cloudy
5:50 PM 46.4 °F 41.9 °F 35.6 °F 66% 29.89 in 6.2 mi ENE 9.2 mph - N/A   Mostly Cloudy
6:20 PM 44.6 °F 37.8 °F 35.6 °F 71% 29.89 in 6.2 mi ESE 15.0 mph - N/A   Mostly Cloudy
6:50 PM 46.4 °F 39.5 °F 35.6 °F 66% 29.86 in 6.2 mi ESE 17.3 mph - N/A   Mostly Cloudy
7:20 PM 44.6 °F 38.4 °F 35.6 °F 71% 29.86 in 6.2 mi East 12.7 mph - N/A   Mostly Cloudy
7:50 PM 42.8 °F 36.2 °F 35.6 °F 76% 29.86 in 6.2 mi NE 12.7 mph - N/A   Mostly Cloudy
8:00 PM 42 °F - 35 °F 69%  in 12 mi NE 11.5 mph - -   Partly Cloudy
8:20 PM 44.6 °F 37.2 °F 35.6 °F 71% 29.86 in 6.2 mi East 17.3 mph - N/A   Mostly Cloudy
8:50 PM 48.2 °F - 35.6 °F 62% 29.83 in 6.2 mi East 12.7 mph - N/A   Mostly Cloudy
9:20 PM 48.2 °F - 35.6 °F 62% 29.83 in 6.2 mi Variable 8.1 mph - N/A   Mostly Cloudy
9:50 PM 44.6 °F 37.4 °F 37.4 °F 76% 29.83 in 6.2 mi East 16.1 mph - N/A   Mostly Cloudy
10:20 PM 44.6 °F 36.1 °F 35.6 °F 71% 29.83 in 6.2 mi East 21.9 mph - N/A   Mostly Cloudy
10:50 PM 42.8 °F 34.0 °F 35.6 °F 76% 29.80 in 6.2 mi ENE 20.7 mph 32.2 mph N/A   Mostly Cloudy
11:20 PM 46.4 °F 43.5 °F 35.6 °F 66% 29.80 in 6.2 mi Variable 5.8 mph - N/A   Mostly Cloudy
11:50 PM 46.4 °F 39.2 °F 35.6 °F 66% 29.77 in 6.2 mi East 18.4 mph - N/A   Mostly Cloudy